Location: Henham
(51.9333°N, 0.2500°E)
Time: 19:49:25
(UTC+00:00)

STARLINK-64 - Pass Details

Date: 23 October 2019
Orbit: 545 x 555 km, 53.0° (Epoch: 22 November)

Event Time Altitude Azimuth Distance (km) Brightness Sun altitude
Rises 18:37:27 0° 283° (WNW) 2,735 8.8 -17.4°
Reaches altitude 10° 18:39:41 10° 283° (WNW) 1,840 7.5 -17.7°
Maximum altitude 18:43:53 90° 34° (NE) 561 3.5 -18.3°
Enters shadow 18:45:07 45° 104° (ESE) 763 3.8 -18.5°
